Home   Weather   Woodbridge   Past weeks
Flag for USA

Past Weather in Woodbridge, North Carolina, USA — Yesterday and Last 2 Weeks

Now
71 °F

Overcast.


Feels Like: 73 °F
Forecast: 84 / 67 °F
Wind: 9 mph from East

Location: Fayetteville Regional Airport

Current Time: May 22, 2019 at 5:05:24 am

Latest Report: May 22, 2019 at 3:53 am


Visibility: 10 mi

Pressure: 30.09 "Hg

Humidity: 76%

Dew Point: 63 °F

Location of WoodbridgeLocation

Past Weather in Woodbridge — Graph

°F

Woodbridge Temperature Yesterday

Maximum temperature yesterday: 89 °F (at 2:53 pm)
Minimum temperature yesterday: 68 °F (at 5:53 am)
Average temperature yesterday: 77 °F

High & Low Weather Summary for the Past Weeks

 TemperatureHumidityPressure
High94 °F (May 18, 2:53 pm)100% (May 7, 5:35 am)30.18 "Hg (May 7, 5:35 am)
Low49 °F (May 15, 5:53 am)27% (May 15, 3:53 pm)29.65 "Hg (May 13, 2:53 pm)
Average73 °F68%29.96 "Hg
* Reported May 7 2:53 am — May 22 2:53 am, Woodbridge. Weather by CustomWeather, © 2019

Note: Actual official high and low records may vary slightly from our data, if they occured in-between our weather recording intervals... More about our weather records

Advertising

Woodbridge Weather History for the Previous 24 Hours

Scroll right to see more
 ConditionsComfort  
Time TempWeatherWind HumidityBarometerVisibility
2:53 am
Wed, May 22
72 °FOvercast.9 mph76%30.07 "Hg10 mi
11:53 pm
Tue, May 21
73 °FClear.8 mph64%30.02 "Hg10 mi
10:53 pm72 °FClear.9 mph71%30.00 "Hg10 mi
9:53 pm76 °FClear.5 mph64%29.98 "Hg10 mi
8:53 pm77 °FClear.3 mph64%29.95 "Hg10 mi
7:53 pm83 °FSunny.5 mph55%29.93 "Hg10 mi
6:53 pm88 °FSunny.6 mph40%29.91 "Hg10 mi
5:53 pm89 °FSunny.3 mph38%29.90 "Hg10 mi
4:53 pm89 °FSunny.7 mph38%29.90 "Hg10 mi
3:53 pm88 °FSunny.5 mph39%29.91 "Hg10 mi
2:53 pm89 °FSunny.8 mph38%29.92 "Hg10 mi
1:53 pm88 °FSunny.9 mph38%29.94 "Hg10 mi
12:53 pm87 °FSunny.9 mph43%29.96 "Hg10 mi
11:53 am85 °FSunny.9 mph50%29.96 "Hg10 mi
10:53 am83 °FSunny.8 mph57%29.96 "Hg10 mi
9:53 am80 °FSunny.8 mph64%29.95 "Hg10 mi
8:53 am77 °FSunny.5 mph79%29.96 "Hg10 mi
7:53 am73 °FPassing clouds.5 mph94%29.95 "Hg9 mi
7:31 am71 °FFog.No wind100%29.95 "Hg6 mi
6:53 am68 °FFog.No wind100%29.93 "Hg1 mi
6:34 am68 °FFog.No wind100%29.94 "Hg1 mi
6:23 am69 °FFog.No wind100%29.94 "Hg0 mi
5:53 am68 °FFog.No wind100%29.91 "Hg4 mi
Weather by CustomWeather, © 2019

See weather overview